DW5588 Weather Reports


time (UTC)temp
F
wind
direction
speed
knots
gust
knots
rain 1hr
in
rain 24hr
in
rain mn
in
humidity
%
barometer
mb
20260502194503 51 302 2.6 9.6 0.00 0.00 0.00 34 1014.0
20260502194004 50 298 3.5 9.6 0.00 0.00 0.00 37 1014.0
20260502193503 50 303 2.6 7.0 0.00 0.00 0.00 37 1014.0
20260502193004 49 304 1.7 6.1 0.00 0.00 0.00 37 1014.1
20260502192004 49 314 1.7 4.3 0.00 0.00 0.00 33 1014.1
20260502191504 50 314 1.7 4.3 0.00 0.00 0.00 34 1014.4
20260502190504 50 315 2.6 8.7 0.00 0.00 0.00 38 1014.4
20260502185004 49 282 3.5 10.4 0.00 0.00 0.00 34 1014.5
20260502184504 49 292 5.2 11.3 0.00 0.00 0.00 34 1014.5
20260502184004 50 307 5.2 11.3 0.00 0.00 0.00 35 1014.5
20260502183504 49 302 4.3 8.7 0.00 0.00 0.00 38 1014.5
20260502183004 50 283 3.5 9.6 0.00 0.00 0.00 34 1014.6
20260502182504 49 303 2.6 9.6 0.00 0.00 0.00 37 1014.6
20260502182004 49 308 3.5 9.6 0.00 0.00 0.00 42 1014.6
20260502181004 48 312 1.7 7.8 0.00 0.00 0.00 37 1014.9
20260502170504 47 313 2.6 7.8 0.00 0.00 0.00 45 1015.4
20260502164004 46 314 2.6 7.8 0.00 0.00 0.00 40 1015.6
20260502163004 45 313 2.6 9.6 0.00 0.00 0.00 39 1015.6
20260502162504 45 312 5.2 11.3 0.00 0.00 0.00 40 1015.6
20260502162003 45 310 4.3 11.3 0.00 0.00 0.00 39 1015.6
20260502161504 45 304 3.5 11.3 0.00 0.00 0.00 46 1015.7
20260502152004 43 305 5.2 10.4 0.00 0.00 0.00 41 1016.0
20260502151503 43 311 6.1 12.2 0.00 0.00 0.00 43 1016.1
20260502151004 42 307 6.1 12.2 0.00 0.00 0.00 43 1016.1
20260502150503 42 301 5.2 12.2 0.00 0.00 0.00 43 1016.1
20260502123504 36 311 1.7 6.1 0.00 0.00 0.00 73 1016.6
20260502123004 36 310 0.9 5.2 0.00 0.00 0.00 74 1016.9
20260502122504 35 311 0.9 5.2 0.00 0.00 0.00 78 1016.9
20260502122003 35 307 0.9 5.2 0.00 0.00 0.00 79 1016.9
20260502121003 34 313 0.9 6.1 0.00 0.00 0.00 80 1016.8
20260502120504 34 313 0.9 4.3 0.00 0.00 0.00 80 1016.8
20260502115503 34 311 0.9 4.3 0.00 0.00 0.00 81 1016.6
20260502114504 33 297 0.9 4.3 0.00 0.00 0.00 82 1016.5
20260502113504 32 298 0.9 3.5 0.00 0.00 0.00 82 1016.5
20260502113004 32 297 0.9 3.5 0.00 0.00 0.00 83 1016.5
20260502112504 32 296 0.9 3.5 0.00 0.00 0.00 83 1016.5
20260502112003 32 294 0.9 2.6 0.00 0.00 0.00 83 1016.5
20260502111004 32 303 0.0 1.7 0.00 0.00 0.00 77 1016.6
20260502110504 32 303 0.0 1.7 0.00 0.00 0.00 77 1016.6
20260502110003 32 303 0.0 1.7 0.00 0.00 0.00 77 1016.3
20260502105504 32 303 0.0 1.7 0.00 0.00 0.00 77 1016.3
20260502105004 32 303 0.0 1.7 0.00 0.00 0.00 77 1016.3
20260502104504 32 303 0.0 1.7 0.00 0.00 0.00 77 1016.3
20260502103504 32 303 0.0 1.7 0.00 0.00 0.00 77 1016.3
20260502103004 32 303 0.0 1.7 0.00 0.00 0.00 77 1016.2
20260502102504 32 303 0.0 1.7 0.00 0.00 0.00 77 1016.2
20260502101504 32 303 0.0 1.7 0.00 0.00 0.00 77 1016.1
20260502101004 32 303 0.0 1.7 0.00 0.00 0.00 77 1016.1
20260502100503 32 303 0.0 1.7 0.00 0.00 0.00 77 1016.1
20260502091504 32 303 0.0 1.7 0.00 0.00 0.00 77 1016.1
20260502071004 36 0 0.0 0.0 0.00 0.00 0.00 72 1015.7
20260502070004 36 313 0.0 1.7 0.00 0.00 0.00 71 1015.9
20260502065004 36 313 0.9 4.3 0.00 0.00 0.00 71 1015.9
20260502064504 36 313 0.9 6.1 0.00 0.00 0.00 70 1015.9
20260502064003 36 312 0.9 6.1 0.00 0.00 0.00 70 1015.9
20260502063504 36 311 0.9 3.5 0.00 0.00 0.00 69 1015.9
20260502063003 36 312 0.9 3.5 0.00 0.00 0.00 69 1015.9
20260502062003 37 314 0.9 3.5 0.00 0.00 0.00 68 1015.9
20260502061504 37 314 0.9 3.5 0.00 0.00 0.00 68 1015.9
20260502061004 37 312 0.0 2.6 0.00 0.00 0.00 68 1015.9
20260502060504 37 313 0.9 2.6 0.00 0.00 0.00 68 1015.9
20260502060004 37 314 0.0 1.7 0.00 0.00 0.00 68 1015.8
20260502055504 37 312 0.0 2.6 0.00 0.00 0.00 67 1015.8
20260502055004 37 312 0.9 4.3 0.00 0.00 0.00 67 1015.8
20260502054004 37 313 0.9 3.5 0.00 0.00 0.00 65 1015.7
20260502053504 37 313 0.9 4.3 0.00 0.00 0.00 66 1015.7
20260502053004 37 313 0.9 4.3 0.00 0.00 0.00 65 1015.7
20260502052003 38 315 0.9 4.3 0.00 0.00 0.00 64 1015.7
20260502051503 38 313 0.9 4.3 0.00 0.00 0.00 64 1015.6
20260502051004 38 314 0.9 4.3 0.00 0.00 0.00 63 1015.6
20260502050004 38 314 0.9 4.3 0.00 0.00 0.00 63 1015.5
20260502045504 38 315 0.9 6.1 0.00 0.00 0.00 63 1015.5
20260502045004 38 317 0.9 6.1 0.00 0.00 0.00 62 1015.5
20260502044504 38 319 0.9 5.2 0.00 0.00 0.00 62 1015.5
20260502044004 38 316 0.9 5.2 0.00 0.00 0.00 61 1015.5
20260502043503 38 317 1.7 5.2 0.00 0.00 0.00 61 1015.5
20260502043004 38 318 0.9 5.2 0.00 0.00 0.00 61 1015.5
20260502042504 38 316 1.7 7.8 0.00 0.00 0.00 60 1015.5
20260502042004 38 316 1.7 7.8 0.00 0.00 0.00 60 1015.5
20260502041503 38 317 0.9 3.5 0.00 0.00 0.00 60 1015.5
20260502040503 39 319 0.9 4.3 0.00 0.00 0.00 60 1015.5
20260502040005 39 319 1.7 4.3 0.00 0.00 0.00 59 1015.4
20260502035504 39 317 1.7 6.1 0.00 0.00 0.00 59 1015.4
20260502035004 39 315 1.7 6.1 0.00 0.00 0.00 59 1015.4
20260502034004 39 321 0.9 3.5 0.00 0.00 0.00 59 1015.4
20260502033504 39 317 1.7 6.1 0.00 0.00 0.00 59 1015.4
20260502033004 39 316 1.7 6.1 0.00 0.00 0.00 59 1015.2
20260502032503 39 316 1.7 4.3 0.00 0.00 0.00 59 1015.2
20260502032004 39 316 1.7 5.2 0.00 0.00 0.00 59 1015.2
20260502030503 39 314 2.6 5.2 0.00 0.00 0.00 59 1015.2
20260502030003 39 314 2.6 6.1 0.00 0.00 0.00 59 1015.1
20260502025503 39 313 1.7 6.1 0.00 0.00 0.00 58 1015.1
20260502025004 39 313 1.7 4.3 0.00 0.00 0.00 58 1015.1
20260502024504 40 312 0.9 3.5 0.00 0.00 0.00 57 1015.1
20260502024004 40 312 0.9 3.5 0.00 0.00 0.00 57 1015.1
20260502023504 40 313 0.9 3.5 0.00 0.00 0.00 57 1015.1
20260502022503 40 313 0.9 2.6 0.00 0.00 0.00 56 1015.0
20260502022003 40 311 0.9 2.6 0.00 0.00 0.00 56 1015.0
20260502021503 40 312 0.9 4.3 0.00 0.00 0.00 56 1015.0
20260502021004 40 313 1.7 4.3 0.00 0.00 0.00 56 1015.0
20260502020504 40 313 0.9 4.3 0.00 0.00 0.00 56 1015.0
20260502020004 40 315 1.7 3.5 0.00 0.00 0.00 55 1015.0
20260502015503 40 315 0.9 4.3 0.00 0.00 0.00 55 1015.0
20260502015003 40 313 1.7 4.3 0.00 0.00 0.00 56 1015.0
20260502014504 40 314 1.7 5.2 0.00 0.00 0.00 55 1014.9
20260502014004 40 313 1.7 5.2 0.00 0.00 0.00 54 1014.9
20260502013504 40 313 1.7 5.2 0.00 0.00 0.00 55 1014.9
20260502013004 40 315 2.6 6.1 0.00 0.00 0.00 55 1014.8
20260502012503 40 317 2.6 6.1 0.00 0.00 0.00 55 1014.8
20260502012004 40 316 1.7 6.1 0.00 0.00 0.00 54 1014.8
20260502011503 41 315 1.7 5.2 0.00 0.00 0.00 54 1014.6
20260502011003 41 316 1.7 5.2 0.00 0.00 0.00 54 1014.6
20260502010504 41 314 1.7 7.0 0.00 0.00 0.00 54 1014.6
20260502005503 41 315 1.7 6.1 0.00 0.00 0.00 55 1014.4
20260502005003 41 317 1.7 7.8 0.00 0.00 0.00 54 1014.4
20260502004504 41 318 0.9 7.8 0.00 0.00 0.00 53 1014.3
20260502004004 41 316 0.9 3.5 0.00 0.00 0.00 53 1014.3
20260502003504 41 313 1.7 6.1 0.00 0.00 0.00 53 1014.3
20260502003004 41 312 1.7 6.1 0.00 0.00 0.00 52 1014.2
20260502002504 41 314 0.9 4.3 0.00 0.00 0.00 52 1014.2
20260502002004 41 315 0.9 4.3 0.00 0.00 0.00 51 1014.2
20260502001504 42 315 1.7 4.3 0.00 0.00 0.00 51 1014.0
20260502001004 42 315 1.7 4.3 0.00 0.00 0.00 51 1014.0
20260502000004 42 317 2.6 7.0 0.00 0.00 0.00 50 1014.0
20260501235004 42 318 2.6 7.8 0.00 0.00 0.00 50 1014.0
20260501234004 42 319 1.7 5.2 0.00 0.00 0.00 50 1013.9
20260501233504 42 318 1.7 5.2 0.00 0.00 0.00 49 1013.9
20260501233004 42 313 2.6 7.0 0.00 0.00 0.00 51 1013.9
20260501232003 42 315 2.6 7.0 0.00 0.00 0.00 49 1013.9
20260501231503 42 314 3.5 8.7 0.00 0.00 0.00 50 1013.8
20260501231003 42 313 2.6 8.7 0.00 0.00 0.00 50 1013.8
20260501230503 43 315 1.7 8.7 0.00 0.00 0.00 49 1013.8
20260501225503 43 314 1.7 7.8 0.00 0.00 0.00 50 1013.6
20260501225004 43 316 1.7 7.8 0.00 0.00 0.00 49 1013.6
20260501224504 43 319 1.7 6.1 0.00 0.00 0.00 51 1013.6
20260501224004 43 321 1.7 7.8 0.00 0.00 0.00 49 1013.6
20260501223503 43 320 1.7 7.8 0.00 0.00 0.00 49 1013.6
20260501223003 43 318 2.6 7.0 0.00 0.00 0.00 49 1013.5
20260501222504 43 317 2.6 7.0 0.00 0.00 0.00 49 1013.5
20260501222004 43 317 1.7 6.1 0.00 0.00 0.00 49 1013.5
20260501221504 44 316 1.7 6.1 0.00 0.00 0.00 50 1013.4
20260501221004 44 316 1.7 6.1 0.00 0.00 0.00 50 1013.4
20260501220504 44 315 1.7 6.1 0.00 0.00 0.00 50 1013.4
20260501220004 44 318 0.9 5.2 0.00 0.00 0.00 50 1013.3
20260501215504 44 320 1.7 5.2 0.00 0.00 0.00 49 1013.3
20260501214504 44 317 2.6 10.4 0.00 0.00 0.00 49 1013.2
20260501214004 44 317 2.6 10.4 0.00 0.00 0.00 49 1013.2
20260501213504 44 315 3.5 9.6 0.00 0.00 0.00 51 1013.2
20260501213004 44 315 3.5 9.6 0.00 0.00 0.00 49 1013.0
20260501212504 44 316 1.7 7.0 0.00 0.00 0.00 48 1013.0
20260501212004 44 318 1.7 7.0 0.00 0.00 0.00 47 1013.0
20260501210503 44 314 4.3 10.4 0.00 0.00 0.00 48 1012.8
20260501210003 45 311 2.6 11.3 0.00 0.00 0.00 47 1012.8
20260501205504 45 312 3.5 11.3 0.00 0.00 0.00 44 1012.8
20260501204004 45 311 2.6 8.7 0.00 0.00 0.00 45 1012.9
20260501203504 45 312 1.7 7.8 0.00 0.00 0.00 44 1012.9
20260501202504 45 314 2.6 6.1 0.00 0.00 0.00 45 1012.9
20260501202004 45 311 2.6 7.0 0.00 0.00 0.00 48 1012.9
20260501201504 45 313 2.6 7.0 0.00 0.00 0.00 47 1012.9
20260501201004 45 316 2.6 6.1 0.00 0.00 0.00 46 1012.9
20260501200004 45 317 2.6 7.8 0.00 0.00 0.00 47 1012.9